This demonstration page uses our WeatherBlox Daily Observations layout. Learn more.

Left ArrowRight Arrow

39.29038, -76.61219

Hourly Observations for January 18, 2020

Temp ( °F °C ) Dew Point ( °F °C ) Humidity (%) Winds ( mph kmh ) Pressure ( in mb ) Visibility ( mi km ) Precip ( " mm )
12:54 am 00:54 undefined 28 -2.2 6 -14.4 39 39 undefined N/A 30.68 1039 N/A 0.00 0.00
1:54 am 01:54 undefined 28 -2.2 6 -14.4 39 39 undefined N/A 30.72 1040 N/A 0.00 0.00
2:54 am 02:54 undefined 27 -2.8 7 -13.9 43 43 undefined N/A 30.63 1037 N/A 0.00 0.00
3:54 am 03:54 undefined 28 -2.2 9 -12.8 44 44 undefined N/A 30.62 1037 N/A 0.00 0.00
4:54 am 04:54 undefined 28 -2.2 10 -12.2 47 47 undefined N/A 30.62 1037 N/A 0.00 0.00
5:54 am 05:54 undefined 28 -2.2 11 -11.7 49 49 undefined N/A 30.61 1037 N/A 0.00 0.00
6:54 am 06:54 undefined 28 -2.2 13 -10.6 53 53 undefined N/A 30.54 1034 N/A 0.00 0.00
7:54 am 07:54 undefined 29 -1.7 12 -11.1 49 49 undefined N/A 30.57 1035 N/A 0.00 0.00
8:54 am 08:54 undefined 30 -1.1 12 -11.1 47 47 undefined N/A 30.54 1034 N/A 0.00 0.00
9:54 am 09:54 undefined 31 -0.6 14 -10 49 49 undefined N/A 30.51 1033 N/A 0.00 0.00
10:54 am 10:54 undefined 32 0 18 -7.8 56 56 undefined N/A 30.47 1032 N/A 0.00 0.00
11:54 am 11:54 undefined 32 0 19 -7.2 59 59 undefined N/A 30.40 1029 N/A 0.00 0.00
12:54 pm 12:54 undefined 32 0 24 -4.4 73 73 undefined N/A 30.30 1026 N/A 0.01 0.25
1:54 pm 13:54 undefined 31 -0.6 25 -3.9 79 79 undefined N/A 30.23 1024 N/A 0.03 0.76
2:54 pm 14:54 undefined 32 0 26 -3.3 79 79 undefined N/A 30.20 1023 N/A 0.00 0.00
3:54 pm 15:54 undefined 32 0 27 -2.8 82 82 undefined N/A 30.16 1021 N/A 0.04 1.02
4:54 pm 16:54 undefined 33 0.6 29 -1.7 85 85 undefined N/A 30.09 1019 N/A 0.15 3.81
5:54 pm 17:54 undefined 33 0.6 30 -1.1 89 89 undefined N/A 30.05 1018 N/A 0.10 2.54
6:54 pm 18:54 undefined 34 1.1 31 -0.6 89 89 undefined N/A 30.01 1016 N/A 0.00 0.00
7:54 pm 19:54 undefined 35 1.7 32 0 89 89 undefined N/A 29.97 1015 N/A 0.00 0.00
8:54 pm 20:54 undefined 36 2.2 33 0.6 89 89 undefined N/A 29.92 1013 N/A 0.00 0.00
9:54 pm 21:54 undefined 37 2.8 34 1.1 89 89 undefined N/A 29.87 1011 N/A 0.00 0.00
10:54 pm 22:54 undefined 39 3.9 36 2.2 89 89 undefined N/A 29.82 1010 N/A 0.00 0.00
11:54 pm 23:54 undefined 41 5 37 2.8 86 86 undefined N/A 29.78 1008 N/A 0.00 0.00

Powered by AerisWeather